W7REA Weather Reports


time (UTC)temp
C
wind
direction
speed
KPH
gust
KPH
rain 1hr
cm
rain 24hr
cm
rain mn
cm
humidity
%
barometer
mb
20260906220052 37 286 4.8 17.7 0.00 0.00 0.00 10 1012.9
20260906214553 37 201 4.8 19.3 0.00 0.00 0.00 11 1013.0
20260906213046 37 254 1.6 17.7 0.00 0.00 0.00 12 1013.2
20260906211542 37 0 4.8 19.3 0.00 0.00 0.00 11 1013.5
20260906210044 38 0 1.6 9.7 0.00 0.00 0.00 14 1013.5
20260906204551 37 148 1.6 12.9 0.00 0.00 0.00 16 1013.7
20260906203047 37 71 3.2 14.5 0.00 0.00 0.00 16 1013.9
20260906201557 36 174 1.6 8.0 0.00 0.00 0.00 17 1014.4
20260906200050 36 195 4.8 14.5 0.00 0.00 0.00 18 1014.7
20260906194547 35 0 0.0 8.0 0.00 0.00 0.00 19 1014.8
20260906193045 35 200 0.0 9.7 0.00 0.00 0.00 20 1015.2
20260906191543 35 0 1.6 9.7 0.00 0.00 0.00 20 1015.4
20260906190103 35 130 1.6 9.7 0.00 0.00 0.00 21 1015.5
20260906184549 33 199 0.0 8.0 0.00 0.00 0.00 22 1015.8
20260906183056 32 194 1.6 9.7 0.00 0.00 0.00 23 1016.0
20260906181552 32 0 1.6 6.4 0.00 0.00 0.00 25 1016.4
20260906180051 31 214 1.6 9.7 0.00 0.00 0.00 27 1016.7
20260906174549 30 0 0.0 9.7 0.00 0.00 0.00 30 1016.8
20260906173053 29 0 0.0 8.0 0.00 0.00 0.00 33 1017.1
20260906171544 27 192 0.0 8.0 0.00 0.00 0.00 36 1017.2
20260906170041 27 0 0.0 9.7 0.00 0.00 0.00 40 1017.4
20260906164548 26 0 1.6 6.4 0.00 0.00 0.00 42 1017.6
20260906163045 25 145 0.0 6.4 0.00 0.00 0.00 45 1017.9
20260906161540 25 0 0.0 8.0 0.00 0.00 0.00 46 1018.0
20260906160055 24 0 1.6 8.0 0.00 0.00 0.00 50 1018.0
20260906154547 23 360 0.0 9.7 0.00 0.00 0.00 53 1018.1
20260906153042 23 360 0.0 9.7 0.00 0.00 0.00 55 1018.1
20260906151559 23 360 3.2 6.4 0.00 0.00 0.00 57 1018.2
20260906150052 22 0 0.0 9.7 0.00 0.00 0.00 60 1018.4
20260906144545 21 0 0.0 6.4 0.00 0.00 0.00 64 1018.1
20260906143041 20 360 3.2 14.5 0.00 0.00 0.00 65 1018.0
20260906141542 20 360 3.2 16.1 0.00 0.00 0.00 67 1017.8
20260906140052 18 360 4.8 9.7 0.00 0.00 0.00 70 1017.6
20260906134545 17 360 3.2 9.7 0.00 0.00 0.00 72 1017.8
20260906133059 17 360 3.2 8.0 0.00 0.00 0.00 73 1017.5
20260906131600 16 360 1.6 8.0 0.00 0.00 0.00 73 1017.5
20260906130104 17 360 3.2 9.7 0.00 0.00 0.00 72 1017.6
20260906124545 17 360 4.8 16.1 0.00 0.00 0.00 72 1017.3
20260906123045 17 360 1.6 9.7 0.00 0.00 0.00 73 1017.3
20260906121551 17 360 0.0 6.4 0.00 0.00 0.00 72 1017.4
20260906120050 17 360 1.6 9.7 0.00 0.00 0.00 72 1017.3
20260906114545 17 360 1.6 8.0 0.00 0.00 0.00 71 1017.5
20260906113044 17 0 1.6 12.9 0.00 0.00 0.00 71 1017.6
20260906111555 17 0 0.0 14.5 0.00 0.00 0.00 70 1017.8
20260906110057 17 360 3.2 9.7 0.00 0.00 0.00 69 1017.6
20260906104544 17 360 0.0 4.8 0.00 0.00 0.00 70 1017.6
20260906103041 17 0 0.0 4.8 0.00 0.00 0.00 69 1017.5
20260906101550 17 0 0.0 4.8 0.00 0.00 0.00 69 1017.4
20260906100049 16 0 1.6 3.2 0.00 0.00 0.00 66 1017.6
20260906094546 16 0 0.0 4.8 0.00 0.00 0.00 63 1017.5
20260906093054 16 0 0.0 0.0 0.00 0.00 0.00 62 1017.4
20260906091551 16 0 0.0 0.0 0.00 0.00 0.00 63 1017.3
20260906090119 16 0 0.0 0.0 0.00 0.00 0.00 59 1017.3
20260906084552 17 0 0.0 0.0 0.00 0.00 0.00 57 1017.3
20260906083043 17 0 0.0 0.0 0.00 0.00 0.00 57 1017.3
20260906081552 17 0 0.0 0.0 0.00 0.00 0.00 54 1017.4
20260906074551 17 0 0.0 0.0 0.00 0.00 0.00 54 1017.5
20260906073041 18 0 0.0 0.0 0.00 0.00 0.00 53 1017.7
20260906071540 18 0 0.0 0.0 0.00 0.00 0.00 51 1017.9
20260906070050 18 0 0.0 0.0 0.00 0.00 0.00 53 1017.6
20260906064545 18 0 0.0 0.0 0.00 0.00 0.00 51 1017.8
20260906063042 19 0 0.0 0.0 0.00 0.00 0.00 51 1018.0
20260906061548 19 0 0.0 0.0 0.00 0.00 0.00 49 1018.2
20260906060052 19 0 0.0 0.0 0.00 0.00 0.00 49 1018.2
20260906054546 20 0 0.0 0.0 0.00 0.00 0.00 47 1018.4
20260906053057 20 0 0.0 0.0 0.00 0.00 0.00 46 1018.3
20260906051541 20 0 0.0 0.0 0.00 0.00 0.00 45 1018.4
20260906050050 21 0 0.0 0.0 0.00 0.00 0.00 44 1018.5
20260906044545 21 0 0.0 0.0 0.00 0.00 0.00 43 1018.5
20260906043040 21 0 0.0 0.0 0.00 0.00 0.00 42 1018.6
20260906041556 22 0 0.0 1.6 0.00 0.00 0.00 41 1018.5
20260906040048 22 0 0.0 0.0 0.00 0.00 0.00 39 1018.4
20260906034544 23 0 0.0 3.2 0.00 0.00 0.00 38 1018.4
20260906033045 23 0 0.0 3.2 0.00 0.00 0.00 37 1018.4
20260906031548 23 0 0.0 1.6 0.00 0.00 0.00 35 1018.3
20260906030050 23 0 0.0 1.6 0.00 0.00 0.00 34 1018.1
20260906024600 24 0 0.0 0.0 0.00 0.00 0.00 32 1017.9
20260906023100 25 0 0.0 6.4 0.00 0.00 0.00 30 1017.8
20260906021552 25 0 0.0 4.8 0.00 0.00 0.00 29 1017.7
20260906020042 26 360 0.0 6.4 0.00 0.00 0.00 27 1017.6
20260906014551 26 0 0.0 4.8 0.00 0.00 0.00 26 1017.4
20260906013046 27 0 0.0 3.2 0.00 0.00 0.00 24 1017.3
20260906011554 28 0 0.0 1.6 0.00 0.00 0.00 23 1017.1
20260906010105 29 0 0.0 8.0 0.00 0.00 0.00 22 1017.1
20260906004549 30 0 0.0 4.8 0.00 0.00 0.00 22 1017.1
20260906003047 30 0 0.0 3.2 0.00 0.00 0.00 21 1017.1
20260906001559 31 0 0.0 8.0 0.00 0.00 0.00 20 1017.0
20260906000041 32 350 0.0 9.7 0.00 0.00 0.00 20 1016.9
20260905234547 32 206 1.6 8.0 0.00 0.00 0.00 18 1016.8
20260905233046 33 352 1.6 8.0 0.00 0.00 0.00 18 1016.7
20260905231545 33 334 0.0 9.7 0.00 0.00 0.00 18 1016.7
20260905230107 33 349 0.0 4.8 0.00 0.00 0.00 19 1016.7
20260905224549 33 349 0.0 6.4 0.00 0.00 0.00 18 1016.8
20260905223043 33 334 0.0 3.2 0.00 0.00 0.00 18 1016.8
20260905221553 33 0 0.0 6.4 0.00 0.00 0.00 18 1016.9